This is the latest recevied weather packets stored in our database for station/object EA1IDU-12. If no packets are shown the sender has not sent any weather packets the latest 10 day(s).
| Time | Temp. | Humidity | Pressure | Rain* | Wind** | Luminosity | Snow |
|---|---|---|---|---|---|---|---|
| 1788620109 | 34.44° C | 17% | 1030.4 hPa | - | - | - | - |
| 1788619208 | 35° C | 17% | 1030.3 hPa | - | - | - | - |
| 1788618308 | 35.56° C | 17% | 1030.3 hPa | - | - | - | - |
| 1788617408 | 37.22° C | 16% | 1030.2 hPa | - | - | - | - |
| 1788616508 | 37.78° C | 16% | 1030.5 hPa | - | - | - | - |
| 1788615608 | 37.22° C | 17% | 1030.5 hPa | - | - | - | - |
| 1788614708 | 37.78° C | 18% | 1030.5 hPa | - | - | - | - |
| 1788613808 | 37.22° C | 18% | 1030.8 hPa | - | - | - | - |
| 1788612907 | 36.11° C | 20% | 1030.8 hPa | - | - | - | - |
| 1788612007 | 35° C | 20% | 1031.1 hPa | - | - | - | - |
| 1788611107 | 34.44° C | 20% | 1031.1 hPa | - | - | - | - |
| 1788610207 | 35° C | 20% | 1031.2 hPa | - | - | - | - |
| 1788609334 | 33.33° C | 23% | 1031.4 hPa | - | - | - | - |
| 1788608407 | 33.89° C | 23% | 1031.4 hPa | - | - | - | - |
| 1788607506 | 33.89° C | 24% | 1031.7 hPa | - | - | - | - |
| 1788606606 | 33.33° C | 26% | 1031.7 hPa | - | - | - | - |
| 1788605706 | 30.56° C | 28% | 1031.9 hPa | - | - | - | - |
| 1788604806 | 30° C | 29% | 1032 hPa | - | - | - | - |
| 1788603906 | 29.44° C | 31% | 1032 hPa | - | - | - | - |
| 1788603005 | 28.89° C | 32% | 1032 hPa | - | - | - | - |
| 1788602105 | 28.33° C | 34% | 1032.2 hPa | - | - | - | - |
| 1788601205 | 27.78° C | 35% | 1032.1 hPa | - | - | - | - |
| 1788600305 | 26.11° C | 37% | 1032.2 hPa | - | - | - | - |
| 1788599405 | 25.56° C | 37% | 1032.2 hPa | - | - | - | - |
| 1788598505 | 25° C | 38% | 1032.1 hPa | - | - | - | - |
* Rain since midnight (hover to see other rain measurements)
** Current wind speed in m/s (hover to see current wind gust speed)